Location: Karcze
(52.0945°N, 22.4786°E)
Time: 19:02:06
(UTC+00:00)

Transit 2A Rocket - Pass Details

Date: 04 August 2021
Orbit: 586 x 917 km, 66.7° (Epoch: 27 September)

Event Time Altitude Azimuth Distance (km) Brightness Sun altitude
Rises 20:21:14 0° 319° (NW) 3,246 10.1 -14.9°
Reaches altitude 10° 20:23:34 10° 316° (NW) 2,365 8.9 -15.1°
Maximum altitude 20:28:58 62° 237° (WSW) 948 5.4 -15.6°
Enters shadow 20:32:33 23° 164° (SSE) 1,746 6.3 -15.9°
Drops below altitude 10° 20:34:47 10° 159° (SSE) 2,541 - -16.0°
Sets 20:37:22 0° 156° (SSE) 3,505 - -16.2°
